Location: B?dimalle
(17.1788°N, 80.5377°E)
Time: 00:37:11
(UTC+00:00)

Injun/Solrad 3 - Pass Details

Date: 21 February 2026
Orbit: 872 x 984 km, 66.8° (Epoch: 7 March)

Event Time Altitude Azimuth Distance (km) Brightness Sun altitude
Rises 15:31:16 0° 328° (NNW) 3,626 11.3 -41.1°
Reaches altitude 10° 15:33:53 10° 323° (NW) 2,694 10.6 -41.7°
Enters shadow 15:35:24 18° 317° (NW) 2,183 10.1 -42.0°
